Regional Weather Roundup
Issued by NWS

Home | Current Version | Previous Version | Text Only | Print | Product List | Glossary Off
Versions: 1 2 3 4 5 6 7 8 9 10 11 12 13 14 15 16 17 18 19 20 21 22 23 24 25 26 27 28 29 30 31 32 33 34 35 36 37 38 39 40 41 42 43 44 45 46 47 48 49 50

000
ASUS43 KFSD 280402
RWRSD

WEATHER ROUNDUP FOR SOUTH DAKOTA
NATIONAL WEATHER SERVICE SIOUX FALLS SD
1000 PM CST MON FEB 27 2017

NOTE: "FAIR" INDICATES FEW OR NO CLOUDS BELOW 12,000 FEET WITH NO
SIGNIFICANT WEATHER AND/OR OBSTRUCTIONS TO VISIBILITY.


SDZ001>005-009-010-012>017-280500-
NORTHWEST AND NORTH CENTRAL SOUTH DAKOTA

CITY           SKY/WX    TMP DP  RH WIND       PRES   REMARKS
BUFFALO          N/A     20  17  88 NE15      29.64R WCI   6
FAITH            N/A     22  22 100 NE21      29.72R WCI   6
MOBRIDGE       CLOUDY    28  22  78 NE7       29.77R WCI  21
$$

SDZ012>016-024>037-041>051-057-063-072>074-280500-
SOUTHWEST AND SOUTH CENTRAL SOUTH DAKOTA

CITY           SKY/WX    TMP DP  RH WIND       PRES   REMARKS
RAPID CTY ARPT CLOUDY    27  19  72 N9        29.68R WCI  18
PIERRE         CLOUDY    35  30  82 NE8       29.71S WCI  29
CUSTER         CLOUDY    21  13  71 NW5       29.60S WCI  15
ELLSWORTH AFB  CLOUDY    28  19  70 N9        29.67R WCI  19
PHILIP         LGT SNOW  32  32 100 E8        29.68F FOG     WCI  25
PINE RIDGE     FLURRIES  32  31  96 W3        29.68R
SPEARFISH      FAIR      25  19  80 E12       29.64S WCI  14
WINNER         FAIR      35  29  78 CALM      29.68S
$$

SDZ004>011-016>023-039-040-280500-
NORTHEAST SOUTH DAKOTA

CITY           SKY/WX    TMP DP  RH WIND       PRES   REMARKS
ABERDEEN       LGT SNOW  30  26  85 NE13      29.79S FOG     WCI  20
WATERTOWN      PTCLDY    33  26  75 S6        29.74S WCI  28
BROOKINGS      CLOUDY    36  29  75 SE8       29.73F
SISSETON         N/A     32  29  88 N14       29.81R WCI  22
$$

SDZ017-020-022-023-036>040-048>070-280500-
SOUTHEAST SOUTH DAKOTA

CITY           SKY/WX    TMP DP  RH WIND       PRES   REMARKS
SIOUX FALLS    CLOUDY    37  32  82 E5        29.73F
HURON          CLOUDY    32  27  81 NW6       29.75R WCI  26
CHAMBERLAIN    CLOUDY    35  31  85 N6        29.69F
MITCHELL       CLEAR     32  28  85 E5        29.72R WCI  27
YANKTON        CLEAR     36  28  75 E9        29.70F
$$

ABBREVIATIONS USED IN REMARKS
   TC - TEMPERATURE IN CELSIUS
  WCI - WIND CHILL INDEX
   HX - HEAT INDEX
  VSB - VISIBILITY





USA.gov is the U.S. government's official web portal to all federal, state and local government web resources and services.